| time (UTC) | temp F | wind direction | speed MPH | gust MPH | rain 1hr in | rain 24hr in | rain mn in | humidity % | barometer mb |
| 20260505221531 | 57 | 140 | 1.0 | 3.0 | 0.00 | 0.00 | 0.00 | 63 | 1004.8 |
| 20260505220523 | 57 | 135 | 1.0 | 3.0 | 0.00 | 0.00 | 0.00 | 63 | 1004.8 |
| 20260505215531 | 57 | 141 | 1.0 | 2.0 | 0.00 | 0.00 | 0.00 | 63 | 1004.6 |
| 20260505214523 | 58 | 39 | 1.0 | 3.0 | 0.00 | 0.00 | 0.00 | 62 | 1004.6 |
| 20260505213531 | 58 | 110 | 2.0 | 3.0 | 0.00 | 0.00 | 0.00 | 61 | 1004.5 |
| 20260505212531 | 61 | 23 | 1.0 | 4.0 | 0.00 | 0.00 | 0.00 | 57 | 1004.4 |
| 20260505211523 | 63 | 136 | 0.0 | 4.0 | 0.00 | 0.00 | 0.00 | 52 | 1004.3 |
| 20260505210531 | 63 | 154 | 2.0 | 5.0 | 0.00 | 0.00 | 0.00 | 51 | 1004.1 |
| 20260505205523 | 64 | 164 | 3.0 | 6.0 | 0.00 | 0.00 | 0.00 | 51 | 1004.0 |
| 20260505204531 | 64 | 167 | 5.0 | 9.0 | 0.00 | 0.00 | 0.00 | 50 | 1003.8 |
| 20260505203522 | 64 | 173 | 5.0 | 10.0 | 0.00 | 0.00 | 0.00 | 50 | 1003.7 |
| 20260505202531 | 64 | 168 | 5.0 | 10.0 | 0.00 | 0.00 | 0.00 | 50 | 1003.7 |
| 20260505201524 | 64 | 175 | 5.0 | 10.0 | 0.00 | 0.00 | 0.00 | 50 | 1003.6 |
| 20260505200531 | 65 | 176 | 5.0 | 10.0 | 0.00 | 0.00 | 0.00 | 50 | 1003.6 |
| 20260505195523 | 65 | 178 | 5.0 | 11.0 | 0.00 | 0.00 | 0.00 | 49 | 1003.6 |
| 20260505194515 | 65 | 175 | 6.0 | 13.0 | 0.00 | 0.00 | 0.00 | 49 | 1003.7 |
| 20260505193524 | 65 | 176 | 6.0 | 12.0 | 0.00 | 0.00 | 0.00 | 49 | 1003.5 |
| 20260505192531 | 65 | 170 | 5.0 | 13.0 | 0.00 | 0.00 | 0.00 | 49 | 1003.4 |
| 20260505191523 | 66 | 177 | 6.0 | 16.0 | 0.00 | 0.00 | 0.00 | 48 | 1003.4 |
| 20260505190532 | 66 | 175 | 6.0 | 13.0 | 0.00 | 0.00 | 0.00 | 48 | 1003.3 |
| 20260505185523 | 66 | 177 | 6.0 | 13.0 | 0.00 | 0.00 | 0.00 | 47 | 1003.4 |
| 20260505184524 | 67 | 181 | 8.0 | 16.0 | 0.00 | 0.00 | 0.00 | 46 | 1003.4 |
| 20260505183531 | 67 | 169 | 6.0 | 13.0 | 0.00 | 0.00 | 0.00 | 46 | 1003.3 |
| 20260505182524 | 67 | 170 | 7.0 | 19.0 | 0.00 | 0.00 | 0.00 | 46 | 1003.2 |
| 20260505181532 | 68 | 160 | 8.0 | 18.0 | 0.00 | 0.00 | 0.00 | 45 | 1003.2 |
| 20260505180523 | 68 | 167 | 7.0 | 14.0 | 0.00 | 0.00 | 0.00 | 45 | 1003.4 |
| 20260505175530 | 68 | 166 | 8.0 | 15.0 | 0.00 | 0.00 | 0.00 | 44 | 1003.3 |
| 20260505174524 | 69 | 172 | 7.0 | 15.0 | 0.00 | 0.00 | 0.00 | 43 | 1003.3 |
| 20260505173523 | 69 | 163 | 8.0 | 17.0 | 0.00 | 0.00 | 0.00 | 43 | 1003.3 |
| 20260505172531 | 69 | 167 | 7.0 | 19.0 | 0.00 | 0.00 | 0.00 | 42 | 1003.5 |
| 20260505171523 | 70 | 156 | 7.0 | 14.0 | 0.00 | 0.00 | 0.00 | 41 | 1003.5 |
| 20260505170531 | 71 | 156 | 6.0 | 17.0 | 0.00 | 0.00 | 0.00 | 41 | 1003.5 |
| 20260505165532 | 71 | 175 | 8.0 | 19.0 | 0.00 | 0.00 | 0.00 | 40 | 1003.5 |
| 20260505164523 | 72 | 163 | 8.0 | 20.0 | 0.00 | 0.00 | 0.00 | 39 | 1003.6 |
| 20260505163531 | 73 | 176 | 9.0 | 21.0 | 0.00 | 0.00 | 0.00 | 38 | 1003.8 |
| 20260505162523 | 73 | 157 | 7.0 | 19.0 | 0.00 | 0.00 | 0.00 | 38 | 1003.9 |
| 20260505161531 | 74 | 164 | 10.0 | 20.0 | 0.00 | 0.00 | 0.00 | 38 | 1004.1 |
| 20260505160524 | 74 | 174 | 7.0 | 17.0 | 0.00 | 0.00 | 0.00 | 38 | 1004.1 |
| 20260505152531 | 75 | 177 | 8.0 | 19.0 | 0.00 | 0.00 | 0.00 | 37 | 1004.5 |
| 20260505151523 | 75 | 167 | 10.0 | 21.0 | 0.00 | 0.00 | 0.00 | 37 | 1004.6 |
| 20260505150531 | 75 | 162 | 8.0 | 21.0 | 0.00 | 0.00 | 0.00 | 36 | 1004.6 |
| 20260505140515 | 79 | 163 | 9.0 | 22.0 | 0.00 | 0.00 | 0.00 | 29 | 1004.3 |
| 20260505124524 | 80 | 173 | 8.0 | 20.0 | 0.00 | 0.00 | 0.00 | 26 | 1004.8 |
| 20260505123516 | 81 | 166 | 8.0 | 19.0 | 0.00 | 0.00 | 0.00 | 25 | 1004.9 |
| 20260505122524 | 80 | 147 | 9.0 | 22.0 | 0.00 | 0.00 | 0.00 | 25 | 1005.0 |
| 20260505121531 | 81 | 163 | 9.0 | 23.0 | 0.00 | 0.00 | 0.00 | 24 | 1005.1 |
| 20260505120524 | 81 | 176 | 9.0 | 19.0 | 0.00 | 0.00 | 0.00 | 24 | 1005.2 |
| 20260505115516 | 81 | 178 | 9.0 | 19.0 | 0.00 | 0.00 | 0.00 | 24 | 1005.4 |
| 20260505114523 | 80 | 174 | 9.0 | 21.0 | 0.00 | 0.00 | 0.00 | 25 | 1005.4 |
| 20260505113516 | 81 | 172 | 8.0 | 19.0 | 0.00 | 0.00 | 0.00 | 25 | 1005.6 |
| 20260505112524 | 81 | 147 | 6.0 | 16.0 | 0.00 | 0.00 | 0.00 | 26 | 1005.5 |
| 20260505111516 | 80 | 148 | 7.0 | 15.0 | 0.00 | 0.00 | 0.00 | 26 | 1005.7 |
| 20260505110524 | 80 | 160 | 6.0 | 13.0 | 0.00 | 0.00 | 0.00 | 26 | 1005.8 |
| 20260505101524 | 76 | 327 | 2.0 | 5.0 | 0.00 | 0.00 | 0.00 | 39 | 1006.4 |
| 20260505100516 | 74 | 99 | 2.0 | 6.0 | 0.00 | 0.00 | 0.00 | 41 | 1006.7 |
| 20260505095524 | 74 | 31 | 2.0 | 7.0 | 0.00 | 0.00 | 0.00 | 42 | 1006.9 |
| 20260505094515 | 73 | 74 | 2.0 | 5.0 | 0.00 | 0.00 | 0.00 | 44 | 1007.1 |
| 20260505093524 | 71 | 19 | 2.0 | 6.0 | 0.00 | 0.00 | 0.00 | 45 | 1007.3 |
| 20260505092516 | 70 | 39 | 2.0 | 6.0 | 0.00 | 0.00 | 0.00 | 46 | 1007.4 |
| 20260505091524 | 69 | 30 | 3.0 | 6.0 | 0.00 | 0.00 | 0.00 | 46 | 1007.6 |
| 20260505090517 | 68 | 50 | 3.0 | 6.0 | 0.00 | 0.00 | 0.00 | 47 | 1007.7 |
| 20260505085523 | 68 | 59 | 2.0 | 6.0 | 0.00 | 0.00 | 0.00 | 48 | 1007.7 |
| 20260505084515 | 67 | 48 | 3.0 | 6.0 | 0.00 | 0.00 | 0.00 | 48 | 1007.8 |
| 20260505083525 | 67 | 19 | 2.0 | 6.0 | 0.00 | 0.00 | 0.00 | 48 | 1007.9 |
| 20260505082516 | 68 | 86 | 3.0 | 7.0 | 0.00 | 0.00 | 0.00 | 46 | 1007.9 |
| 20260505081524 | 68 | 72 | 3.0 | 6.0 | 0.00 | 0.00 | 0.00 | 47 | 1008.0 |
| 20260505080516 | 67 | 74 | 2.0 | 6.0 | 0.00 | 0.00 | 0.00 | 48 | 1008.0 |
| 20260505075524 | 66 | 104 | 3.0 | 4.0 | 0.00 | 0.00 | 0.00 | 48 | 1008.0 |
| 20260505074524 | 66 | 54 | 2.0 | 4.0 | 0.00 | 0.00 | 0.00 | 49 | 1008.1 |
| 20260505073516 | 64 | 111 | 2.0 | 5.0 | 0.00 | 0.00 | 0.00 | 50 | 1008.2 |
| 20260505072524 | 64 | 136 | 4.0 | 6.0 | 0.00 | 0.00 | 0.00 | 50 | 1008.2 |
| 20260505071516 | 63 | 124 | 4.0 | 5.0 | 0.00 | 0.00 | 0.00 | 50 | 1008.2 |
| 20260505070524 | 64 | 125 | 2.0 | 5.0 | 0.00 | 0.00 | 0.00 | 49 | 1008.2 |
| 20260505065516 | 60 | 125 | 1.0 | 2.0 | 0.00 | 0.00 | 0.00 | 56 | 1008.3 |
| 20260505064524 | 57 | 153 | 0.0 | 2.0 | 0.00 | 0.00 | 0.00 | 62 | 1008.2 |
| 20260505063516 | 57 | 128 | 1.0 | 2.0 | 0.00 | 0.00 | 0.00 | 63 | 1008.3 |
| 20260505062524 | 57 | 130 | 1.0 | 2.0 | 0.00 | 0.00 | 0.00 | 63 | 1008.1 |
| 20260505061525 | 57 | 111 | 1.0 | 2.0 | 0.00 | 0.00 | 0.00 | 63 | 1008.1 |
| 20260505060525 | 57 | 114 | 0.0 | 2.0 | 0.00 | 0.00 | 0.00 | 62 | 1008.0 |
| 20260505055516 | 56 | 135 | 1.0 | 2.0 | 0.00 | 0.00 | 0.00 | 61 | 1008.1 |
| 20260505054524 | 56 | 131 | 2.0 | 3.0 | 0.00 | 0.00 | 0.00 | 62 | 1008.1 |
| 20260505053516 | 56 | 141 | 2.0 | 4.0 | 0.00 | 0.00 | 0.00 | 62 | 1008.0 |
| 20260505052524 | 56 | 119 | 2.0 | 4.0 | 0.00 | 0.00 | 0.00 | 63 | 1008.0 |
| 20260505051525 | 56 | 82 | 2.0 | 3.0 | 0.00 | 0.00 | 0.00 | 61 | 1007.9 |
| 20260505050517 | 57 | 83 | 1.0 | 3.0 | 0.00 | 0.00 | 0.00 | 60 | 1007.9 |
| 20260505041525 | 51 | 116 | 2.0 | 4.0 | 0.00 | 0.00 | 0.00 | 71 | 1007.8 |
| 20260505040516 | 51 | 91 | 2.0 | 4.0 | 0.00 | 0.00 | 0.00 | 70 | 1007.9 |
| 20260505035524 | 51 | 22 | 2.0 | 3.0 | 0.00 | 0.00 | 0.00 | 70 | 1007.9 |
| 20260505034525 | 51 | 8 | 1.0 | 4.0 | 0.00 | 0.00 | 0.00 | 70 | 1007.9 |
| 20260505033517 | 50 | 56 | 1.0 | 3.0 | 0.00 | 0.00 | 0.00 | 73 | 1007.9 |
| 20260505032524 | 50 | 142 | 1.0 | 2.0 | 0.00 | 0.00 | 0.00 | 72 | 1008.1 |
| 20260505031517 | 50 | 112 | 3.0 | 4.0 | 0.00 | 0.00 | 0.00 | 72 | 1008.2 |
| 20260505030524 | 51 | 87 | 0.0 | 3.0 | 0.00 | 0.00 | 0.00 | 70 | 1008.1 |
| 20260505025517 | 52 | 114 | 1.0 | 2.0 | 0.00 | 0.00 | 0.00 | 69 | 1008.1 |
| 20260505024525 | 52 | 168 | 2.0 | 3.0 | 0.00 | 0.00 | 0.00 | 68 | 1008.2 |
| 20260505023516 | 52 | 144 | 1.0 | 3.0 | 0.00 | 0.00 | 0.00 | 69 | 1008.1 |
| 20260505022525 | 51 | 143 | 2.0 | 4.0 | 0.00 | 0.00 | 0.00 | 70 | 1008.2 |
| 20260505021517 | 51 | 105 | 2.0 | 4.0 | 0.00 | 0.00 | 0.00 | 70 | 1008.3 |
| 20260505020525 | 51 | 133 | 1.0 | 3.0 | 0.00 | 0.00 | 0.00 | 70 | 1008.2 |
| 20260505015516 | 51 | 129 | 1.0 | 2.0 | 0.00 | 0.00 | 0.00 | 69 | 1008.4 |
| 20260505014517 | 52 | 130 | 1.0 | 3.0 | 0.00 | 0.00 | 0.00 | 68 | 1008.5 |
| 20260505013517 | 53 | 103 | 1.0 | 2.0 | 0.00 | 0.00 | 0.00 | 67 | 1008.5 |
| 20260505012525 | 53 | 127 | 1.0 | 4.0 | 0.00 | 0.00 | 0.00 | 67 | 1008.4 |
| 20260505011517 | 52 | 133 | 1.0 | 2.0 | 0.00 | 0.00 | 0.00 | 67 | 1008.5 |
| 20260505010525 | 53 | 104 | 0.0 | 2.0 | 0.00 | 0.00 | 0.00 | 67 | 1008.6 |
| 20260505005517 | 53 | 112 | 1.0 | 2.0 | 0.00 | 0.00 | 0.00 | 67 | 1008.6 |
| 20260505004525 | 53 | 117 | 0.0 | 1.0 | 0.00 | 0.00 | 0.00 | 66 | 1008.7 |
| 20260505003517 | 54 | 97 | 0.0 | 2.0 | 0.00 | 0.00 | 0.00 | 64 | 1008.8 |
| 20260505002525 | 54 | 122 | 1.0 | 2.0 | 0.00 | 0.00 | 0.00 | 63 | 1008.8 |
| 20260505001525 | 55 | 74 | 0.0 | 2.0 | 0.00 | 0.00 | 0.00 | 60 | 1008.9 |
| 20260505000518 | 57 | 95 | 1.0 | 2.0 | 0.00 | 0.00 | 0.00 | 58 | 1009.0 |
| 20260504235525 | 57 | 110 | 1.0 | 2.0 | 0.00 | 0.00 | 0.00 | 56 | 1009.0 |
| 20260504234517 | 57 | 122 | 1.0 | 3.0 | 0.00 | 0.00 | 0.00 | 55 | 1009.1 |
| 20260504233525 | 59 | 41 | 1.0 | 3.0 | 0.00 | 0.00 | 0.00 | 53 | 1009.3 |
| 20260504232517 | 60 | 137 | 1.0 | 3.0 | 0.00 | 0.00 | 0.00 | 50 | 1009.2 |
| 20260504231518 | 61 | 152 | 2.0 | 4.0 | 0.00 | 0.00 | 0.00 | 49 | 1009.3 |
| 20260504230517 | 61 | 161 | 2.0 | 4.0 | 0.00 | 0.00 | 0.00 | 50 | 1009.4 |
| 20260504225524 | 61 | 136 | 1.0 | 3.0 | 0.00 | 0.00 | 0.00 | 50 | 1009.4 |
| 20260504224517 | 61 | 112 | 2.0 | 4.0 | 0.00 | 0.00 | 0.00 | 51 | 1009.5 |
| 20260504223525 | 62 | 68 | 1.0 | 2.0 | 0.00 | 0.00 | 0.00 | 50 | 1009.6 |
| 20260504222517 | 64 | 114 | 1.0 | 3.0 | 0.00 | 0.00 | 0.00 | 46 | 1009.7 |